Clinton, British Columbia

11:03 PM PDT on April 24, 2018 (GMT -0700)
Clinton

Weather History for CWCL - June, 2013

Change the Weather History Date:

Sunday, June 9, 2013

  Actual Average Record
Temperature  
Mean Temperature 49 °F -  
Max Temperature 57 °F 66 °F 78 °F (1998)
Min Temperature 41 °F 41 °F 33 °F (2008)
Degree Days  
Heating Degree Days 16    
Moisture  
Dew Point 41 °F    
Average Humidity 83    
Maximum Humidity 93    
Minimum Humidity 51    
Precipitation  
Precipitation 0.16 in - - ()
Sea Level Pressure  
Sea Level Pressure 30.00 in    
Wind  
Wind Speed 6 mph ()    
Max Wind Speed 13 mph    
Max Gust Speed 21 mph    
Visibility 7.8 miles    
Events Rain    
Averages and records for this station are not official NWS values.
T = Trace of Precipitation, MM = Missing Value Source: Averaged Metar Reports

Daily Weather History Graph

Daily Weather History Graph

Search for Another Location

Airport or City:

Astronomy

Jun. 09, 2013 Rise Set
Actual Time 4:51 AM PDT 9:19 PM PDT
Civil Twilight 4:05 AM PDT 10:05 PM PDT
Nautical Twilight 2:55 AM PDT 11:15 PM PDT
Astronomical Twilight 1:37 AM PDT 12:33 AM PDT
Moon 6:00 AM PDT (6/9) 10:00 PM PDT (6/9)
Length of Visible Light 18h 00m
Length of Day
16h 28m
New Moon, 1% of the Moon is Illuminated
Jun 9
New Moon
Jun 16
First Quarter
Jun 23
Full
Jun 29
Last Quarter
Jul 8
New

Hourly Weather History & Observations

Time (PDT) Temp. Windchill Dew Point Humidity Pressure Visibility Wind Dir Wind Speed Gust Speed Precip Events Conditions
12:00 AM 44.6 °F 42.2 °F 42.8 °F 93% 30.02 in 9.0 mi NW 4.6 mph - N/A   Mostly Cloudy
1:00 AM 46.4 °F 42.9 °F 44.6 °F 93% 30.01 in 9.0 mi WNW 6.9 mph - N/A   Mostly Cloudy
1:06 AM 46.4 °F 42.4 °F 44.6 °F 93% 29.99 in 9.0 mi NW 8.1 mph - N/A Rain Light Rain
1:17 AM 46.4 °F 41.5 °F 42.8 °F 87% 29.99 in 2.5 mi NNW 10.4 mph - N/A Rain Light Rain
1:33 AM 44.6 °F 41.4 °F 42.8 °F 93% 29.99 in 9.0 mi NW 5.8 mph - N/A Rain Light Rain
1:35 AM 44.6 °F 41.4 °F 42.8 °F 93% 29.99 in 9.0 mi NW 5.8 mph - N/A   Mostly Cloudy
2:00 AM 45 °F - 42 °F 87% 30.01 in 9 mi NW 6.9 mph - -  
2:00 AM 44.6 °F 41.4 °F 42.8 °F 93% 30.01 in 9.0 mi NW 5.8 mph - N/A   Mostly Cloudy
3:00 AM 44.6 °F 41.4 °F 41.0 °F 87% 30.00 in 9.0 mi West 5.8 mph - N/A   Mostly Cloudy
3:45 AM 42.8 °F 39.3 °F 41.0 °F 93% 29.97 in 9.0 mi West 5.8 mph - N/A Rain Light Rain
4:00 AM 44.6 °F 40.7 °F 41.0 °F 87% 30.01 in 6.0 mi WNW 6.9 mph - N/A Rain Light Rain
4:07 AM 44.6 °F 40.2 °F 41.0 °F 87% 29.98 in 5.0 mi WNW 8.1 mph - N/A Rain Light Rain
4:11 AM 42.8 °F 37.5 °F 41.0 °F 93% 29.98 in 2.4 mi WNW 9.2 mph 19.6 mph N/A Rain Light Rain
4:34 AM 42.8 °F 38.0 °F 41.0 °F 93% 29.99 in 3.0 mi NW 8.1 mph - N/A Rain Rain
4:36 AM 42.8 °F 38.6 °F 41.0 °F 93% 29.99 in 2.4 mi NW 6.9 mph - N/A Rain Rain
4:55 AM 42.8 °F 38.6 °F 41.0 °F 93% 29.99 in 5.0 mi NW 6.9 mph - N/A Rain Light Rain
5:00 AM 43 °F - 41 °F 88% 30.03 in 6 mi NW 5.8 mph - -   Unknown Precipitation
5:00 AM 42.8 °F 39.3 °F 41.0 °F 93% 30.03 in 6.0 mi NW 5.8 mph - N/A Rain Light Rain
5:13 AM 42.8 °F 40.1 °F 41.0 °F 93% 30.00 in 4.0 mi NW 4.6 mph - N/A Rain Light Rain
5:37 AM 42.8 °F 38.6 °F 39.2 °F 87% 30.01 in 9.0 mi NW 6.9 mph - N/A Rain Light Rain
6:00 AM 41.0 °F 38.0 °F 39.2 °F 93% 30.05 in 9.0 mi NW 4.6 mph - N/A Rain Light Rain
6:02 AM 42.8 °F 39.3 °F 39.2 °F 87% 30.01 in 9.0 mi WNW 5.8 mph - N/A   Overcast
6:06 AM 42.8 °F 40.1 °F 39.2 °F 87% 30.01 in 9.0 mi WNW 4.6 mph - N/A Rain Light Rain
6:19 AM 42.8 °F 38.6 °F 39.2 °F 87% 30.00 in 9.0 mi WNW 6.9 mph - N/A   Overcast
6:37 AM 42.8 °F 39.3 °F 39.2 °F 87% 30.01 in 9.0 mi NW 5.8 mph - N/A   Overcast
7:00 AM 42.8 °F 39.3 °F 41.0 °F 93% 30.06 in 9.0 mi NW 5.8 mph - N/A   Overcast
7:26 AM 44.6 °F 40.7 °F 41.0 °F 87% 30.02 in 9.0 mi NNW 6.9 mph - N/A   Overcast
7:37 AM 44.6 °F 42.2 °F 41.0 °F 87% 30.01 in 9.0 mi NW 4.6 mph - N/A Rain Light Rain
7:51 AM 44.6 °F 40.7 °F 41.0 °F 87% 30.01 in 9.0 mi NW 6.9 mph - N/A   Overcast
8:00 AM 44 °F - 41 °F 83% 30.05 in 9 mi NW 6.9 mph - -   Overcast
8:00 AM 44.6 °F 42.2 °F 41.0 °F 87% 30.05 in 9.0 mi WNW 4.6 mph - N/A   Overcast
8:16 AM 46.4 °F 44.3 °F 42.8 °F 87% 30.00 in 9.0 mi NW 4.6 mph - N/A   Overcast
9:00 AM 48.2 °F - 42.8 °F 82% 30.04 in 9.0 mi Calm Calm - N/A   Mostly Cloudy
10:00 AM 51.8 °F - 41.0 °F 67% 30.02 in 9.0 mi NNW 6.9 mph - N/A   Mostly Cloudy
11:00 AM 52 °F - 40 °F 53% 30.02 in 9 mi North 4.6 mph - -  
11:00 AM 51.8 °F - 39.2 °F 62% 30.02 in 9.0 mi NNE 6.9 mph - N/A   Mostly Cloudy
12:00 PM 53.6 °F - 35.6 °F 51% 30.01 in 9.0 mi North 2.3 mph - N/A   Mostly Cloudy
12:32 PM 51.8 °F - 39.2 °F 62% 29.99 in 9.0 mi WNW 5.8 mph - N/A Rain Light Rain
1:00 PM 50.0 °F - 39.2 °F 66% 30.03 in 7.0 mi SW 2.3 mph - N/A Rain Light Rain
1:20 PM 50.0 °F - 42.8 °F 76% 29.99 in 9.0 mi WNW 6.9 mph - N/A   Overcast
1:27 PM 50.0 °F - 42.8 °F 76% 29.99 in 9.0 mi NW 6.9 mph - N/A Rain Light Rain
1:51 PM 50.0 °F - 39.2 °F 66% 29.99 in 9.0 mi North 9.2 mph - N/A   Mostly Cloudy
2:00 PM 51 °F - 40 °F 56% 30.02 in 9 mi North 5.8 mph - -  
2:00 PM 50.0 °F - 41.0 °F 71% 30.02 in 9.0 mi NNE 4.6 mph - N/A   Scattered Clouds
3:00 PM 53.6 °F - 39.2 °F 58% 30.00 in 9.0 mi NE 8.1 mph - N/A   Partly Cloudy
4:00 PM 53.6 °F - 37.4 °F 54% 29.99 in 9.0 mi ESE 4.6 mph - N/A   Scattered Clouds
4:18 PM 53.6 °F - 41.0 °F 62% 29.96 in 9.0 mi WSW 2.3 mph - N/A Rain Rain
4:24 PM 51.8 °F - 44.6 °F 76% 29.95 in 6.0 mi SSW 2.3 mph - N/A Rain Light Rain
4:36 PM 50.0 °F - 46.4 °F 87% 29.96 in 8.0 mi NW 4.6 mph - N/A Rain Light Rain
4:38 PM 50.0 °F - 44.6 °F 82% 29.96 in 9.0 mi NW 5.8 mph - N/A Rain Light Rain
5:00 PM 48 °F - 40 °F 64% 30.01 in 9 mi NW 9.2 mph - -   Unknown Precipitation
5:00 PM 48.2 °F - 39.2 °F 71% 30.01 in 9.0 mi NW 12.7 mph 20.7 mph N/A Rain Light Rain
5:09 PM 46.4 °F 41.1 °F 41.0 °F 81% 29.96 in 8.0 mi NNW 11.5 mph 20.7 mph N/A Rain Light Rain
5:29 PM 48.2 °F - 39.2 °F 71% 29.96 in 9.0 mi NNW 10.4 mph 18.4 mph N/A   Mostly Cloudy
5:35 PM 48.2 °F - 39.2 °F 71% 29.96 in 9.0 mi NW 6.9 mph - N/A Rain Light Rain
6:00 PM 46.4 °F 41.9 °F 39.2 °F 76% 30.01 in 9.0 mi NNW 9.2 mph - N/A Rain Light Rain
6:07 PM 46.4 °F 42.4 °F 41.0 °F 81% 29.97 in 9.0 mi NNW 8.1 mph - N/A Rain Light Rain
6:46 PM 46.4 °F 41.5 °F 41.0 °F 81% 29.98 in 5.0 mi NNW 10.4 mph - N/A Rain Rain
6:47 PM 46.4 °F 42.4 °F 41.0 °F 81% 29.98 in 5.0 mi NNW 8.1 mph - N/A Rain Light Rain
7:00 PM 46.4 °F 42.9 °F 42.8 °F 87% 30.04 in 9.0 mi NW 6.9 mph - N/A Rain Light Rain
7:07 PM 44.6 °F 40.2 °F 42.8 °F 93% 29.98 in 2.5 mi NW 8.1 mph - N/A Rain Light Rain
7:19 PM 44.6 °F - 42.8 °F 93% 29.98 in 1.4 mi WNW 2.3 mph - N/A Rain Rain
7:30 PM 44.6 °F 41.4 °F 42.8 °F 93% 29.98 in 3.0 mi NW 5.8 mph - N/A Rain Rain
7:36 PM 44.6 °F 40.7 °F 42.8 °F 93% 29.98 in 2.5 mi NW 6.9 mph - N/A Rain Rain
7:52 PM 44.6 °F 40.7 °F 42.8 °F 93% 29.98 in 9.0 mi WNW 6.9 mph - N/A Rain Light Rain
8:00 PM 44 °F - 42 °F 92% 30.04 in 9 mi WNW 8.1 mph - -  
8:00 PM 44.6 °F 40.2 °F 42.8 °F 93% 30.04 in 9.0 mi WNW 8.1 mph - N/A   Mostly Cloudy
8:03 PM 44.6 °F 40.2 °F 42.8 °F 93% 29.98 in 9.0 mi WNW 8.1 mph - N/A Rain Light Rain
8:21 PM 44.6 °F 39.2 °F 42.8 °F 93% 29.98 in 7.0 mi West 10.4 mph - N/A Rain Light Rain
8:48 PM 42.8 °F 36.6 °F 41.0 °F 93% 29.98 in 9.0 mi West 11.5 mph 18.4 mph N/A Rain Light Rain
8:54 PM 42.8 °F 37.5 °F 41.0 °F 93% 29.98 in 9.0 mi West 9.2 mph 17.3 mph N/A   Mostly Cloudy
9:00 PM 42.8 °F 37.5 °F 41.0 °F 93% 30.03 in 9.0 mi West 9.2 mph 17.3 mph N/A   Partly Cloudy
10:00 PM 42.8 °F - 41.0 °F 93% 30.05 in 9.0 mi NNW 2.3 mph - N/A   Mostly Cloudy
11:00 PM 41 °F - 39 °F 92% 30.05 in 9 mi WSW 2.3 mph - -  
11:00 PM 41.0 °F - 39.2 °F 93% 30.05 in 9.0 mi WSW 2.3 mph - N/A   Mostly Cloudy